,,Stat6,,Stat2,,Stat8,,Stat9,,Stat10,,Wind1,,Wind1,
time,status,PA1M_AVG,status,PR1M_SUM,status,RH1M_AVG,status,SR1M_AVG,status,TA1M_AVG,status,W1dAve1m,status,W1sAve1m,
2004-11-19, 00:00:00,VALID,918.491,VALID,0,VALID,86.4081,VALID,-0.0849042,VALID,20.5927,VALID,131,VALID,1.49855,
2004-11-19, 00:01:00,VALID,918.476,VALID,0,VALID,86.4488,VALID,-0.101885,VALID,20.5676,VALID,133,VALID,2.00229,
2004-11-19, 00:02:00,VALID,918.475,VALID,0,VALID,86.5823,VALID,-0.101885,VALID,20.5385,VALID,141,VALID,1.63125,
2004-11-19, 00:03:00,VALID,918.471,VALID,0,VALID,86.5492,VALID,-0.0849042,VALID,20.5383,VALID,141,VALID,1.92206,
2004-11-19, 00:04:00,VALID,918.475,VALID,0,VALID,86.5518,VALID,-0.0849042,VALID,20.5671,VALID,123,VALID,1.82158,
2004-11-19, 00:05:00,VALID,918.464,VALID,0,VALID,86.3254,VALID,-0.0849042,VALID,20.5873,VALID,136,VALID,2.03423,
2004-11-19, 00:06:00,VALID,918.438,VALID,0,VALID,86.3547,VALID,-0.101885,VALID,20.5929,VALID,139,VALID,1.56021,
2004-11-19, 00:07:00,VALID,918.405,VALID,0,VALID,86.3941,VALID,-0.101885,VALID,20.59,VALID,133,VALID,1.95881,
2004-11-19, 00:08:00,VALID,918.403,VALID,0,VALID,86.3903,VALID,-0.0679233,VALID,20.5803,VALID,134,VALID,1.69978,
2004-11-19, 00:09:00,VALID,918.379,VALID,0,VALID,86.361,VALID,-0.0509425,VALID,20.5867,VALID,122,VALID,1.88194,
2004-11-19, 00:10:00,VALID,918.384,VALID,0,VALID,86.4806,VALID,-0.0849042,VALID,20.6099,VALID,142,VALID,2.19722,
2004-11-19, 00:11:00,VALID,918.351,VALID,0,VALID,86.3712,VALID,-0.0849042,VALID,20.5967,VALID,138,VALID,2.0452,
2004-11-19, 00:12:00,VALID,918.361,VALID,0,VALID,86.6535,VALID,-0.0509425,VALID,20.5997,VALID,113,VALID,1.32489,
2004-11-19, 00:13:00,VALID,918.349,VALID,0,VALID,86.5861,VALID,-0.0509425,VALID,20.5768,VALID,126,VALID,1.56855,
2004-11-19, 00:14:00,VALID,918.347,VALID,0,VALID,86.4259,VALID,-0.0339617,VALID,20.583,VALID,131,VALID,1.94749,
2004-11-19, 00:15:00,VALID,918.33,VALID,0,VALID,86.3826,VALID,-0.0509425,VALID,20.6061,VALID,126,VALID,1.46857,
2004-11-19, 00:16:00,VALID,918.317,VALID,0,VALID,86.3063,VALID,-0.0849042,VALID,20.6317,VALID,126,VALID,2.08029,
2004-11-19, 00:17:00,VALID,918.313,VALID,0,VALID,86.2707,VALID,-0.0679233,VALID,20.6446,VALID,125,VALID,1.38542,
2004-11-19, 00:18:00,VALID,918.298,VALID,0,VALID,86.2606,VALID,-0.0679233,VALID,20.6541,VALID,136,VALID,1.43993,
2004-11-19, 00:19:00,VALID,918.272,VALID,0,VALID,86.2644,VALID,-0.0339617,VALID,20.661,VALID,124,VALID,1.52782,
2004-11-19, 00:20:00,VALID,918.255,VALID,0,VALID,86.1881,VALID,-0.0679233,VALID,20.6645,VALID,138,VALID,1.85903,
2004-11-19, 00:21:00,VALID,918.245,VALID,0,VALID,86.1919,VALID,-0.0169808,VALID,20.6511,VALID,141,VALID,1.9185,
2004-11-19, 00:22:00,VALID,918.24,VALID,0,VALID,86.333,VALID,-0.0339617,VALID,20.6511,VALID,129,VALID,1.871,
2004-11-19, 00:23:00,VALID,918.238,VALID,0,VALID,86.3,VALID,-0.0509425,VALID,20.6355,VALID,134,VALID,1.86357,
2004-11-19, 00:24:00,VALID,918.217,VALID,0,VALID,86.3674,VALID,-0.0679233,VALID,20.6056,VALID,122,VALID,1.81406,
2004-11-19, 00:25:00,VALID,918.216,VALID,0,VALID,86.464,VALID,-0.101885,VALID,20.6131,VALID,122,VALID,1.6915,
2004-11-19, 00:26:00,VALID,918.19,VALID,0,VALID,86.3877,VALID,-0.0679233,VALID,20.5994,VALID,136,VALID,1.55238,
2004-11-19, 00:27:00,VALID,918.191,VALID,0,VALID,86.3458,VALID,-0.0679233,VALID,20.6054,VALID,129,VALID,2.12393,
2004-11-19, 00:28:00,VALID,918.192,VALID,0,VALID,86.3063,VALID,-0.0679233,VALID,20.6377,VALID,127,VALID,1.712,
2004-11-19, 00:29:00,VALID,918.191,VALID,0,VALID,86.2885,VALID,0,VALID,20.6476,VALID,130,VALID,1.45608,
2004-11-19, 00:30:00,VALID,918.158,VALID,0,VALID,86.1779,VALID,-0.0679233,VALID,20.664,VALID,141,VALID,1.71573,
2004-11-19, 00:31:00,VALID,918.146,VALID,0,VALID,86.1779,VALID,-0.0169808,VALID,20.6568,VALID,144,VALID,1.95465,
2004-11-19, 00:32:00,VALID,918.143,VALID,0,VALID,86.1817,VALID,0,VALID,20.6662,VALID,140,VALID,1.73456,
2004-11-19, 00:33:00,VALID,918.132,VALID,0,VALID,86.239,VALID,0.0339617,VALID,20.6595,VALID,142,VALID,1.87202,
2004-11-19, 00:34:00,VALID,918.134,VALID,0,VALID,86.4462,VALID,0.0509425,VALID,20.6329,VALID,135,VALID,1.79353,
2004-11-19, 00:35:00,VALID,918.131,VALID,0,VALID,86.6573,VALID,0.0339617,VALID,20.6046,VALID,139,VALID,1.68917,
2004-11-19, 00:36:00,VALID,918.127,VALID,0,VALID,86.8722,VALID,0.0509425,VALID,20.5621,VALID,135,VALID,1.71298,
2004-11-19, 00:37:00,VALID,918.143,VALID,0,VALID,87.2066,VALID,0.0509425,VALID,20.5303,VALID,128,VALID,1.4897,
2004-11-19, 00:38:00,VALID,918.136,VALID,0,VALID,87.4279,VALID,0.0509425,VALID,20.4818,VALID,116,VALID,1.42791,
2004-11-19, 00:39:00,VALID,918.115,VALID,0,VALID,87.5296,VALID,0.0339617,VALID,20.4401,VALID,101,VALID,1.16482,
2004-11-19, 00:40:00,VALID,918.093,VALID,0,VALID,87.653,VALID,0.0509425,VALID,20.4242,VALID,143,VALID,1.68483,
2004-11-19, 00:41:00,VALID,918.076,VALID,0,VALID,87.6619,VALID,0.0339617,VALID,20.4046,VALID,143,VALID,1.69457,
2004-11-19, 00:42:00,VALID,918.069,VALID,0,VALID,87.7941,VALID,0.0339617,VALID,20.3887,VALID,148,VALID,1.28198,
2004-11-19, 00:43:00,VALID,918.073,VALID,0,VALID,88.0573,VALID,0.0169808,VALID,20.3591,VALID,132,VALID,1.58345,
2004-11-19, 00:44:00,VALID,918.063,VALID,0,VALID,88.0027,VALID,0.0169808,VALID,20.3238,VALID,141,VALID,1.58679,
2004-11-19, 00:45:00,VALID,918.064,VALID,0,VALID,88.0345,VALID,0.0339617,VALID,20.3141,VALID,136,VALID,1.74538,
2004-11-19, 00:46:00,VALID,918.058,VALID,0,VALID,88.0319,VALID,0.0169808,VALID,20.3141,VALID,141,VALID,1.86961,
2004-11-19, 00:47:00,VALID,918.085,VALID,0,VALID,88.2303,VALID,0.0339617,VALID,20.2947,VALID,141,VALID,1.26803,
2004-11-19, 00:48:00,VALID,918.106,VALID,0,VALID,88.271,VALID,0,VALID,20.2818,VALID,137,VALID,1.49201,
2004-11-19, 00:49:00,VALID,918.119,VALID,0,VALID,88.3498,VALID,-0.0169808,VALID,20.2664,VALID,141,VALID,2.25967,
2004-11-19, 00:50:00,VALID,918.111,VALID,0,VALID,88.4045,VALID,0,VALID,20.2369,VALID,143,VALID,2.10458,
2004-11-19, 00:51:00,VALID,918.108,VALID,0,VALID,88.4592,VALID,0,VALID,20.2299,VALID,144,VALID,1.55107,
2004-11-19, 00:52:00,VALID,918.084,VALID,0,VALID,88.6486,VALID,0.0849042,VALID,20.2269,VALID,140,VALID,1.23366,
2004-11-19, 00:53:00,VALID,918.054,VALID,0,VALID,88.7529,VALID,0.0339617,VALID,20.1944,VALID,147,VALID,1.8032,
2004-11-19, 00:54:00,VALID,918.037,VALID,0,VALID,88.6347,VALID,0.0339617,VALID,20.1787,VALID,141,VALID,2.37965,
2004-11-19, 00:55:00,VALID,918.036,VALID,0,VALID,88.7847,VALID,0.0169808,VALID,20.1752,VALID,139,VALID,1.87309,
2004-11-19, 00:56:00,VALID,918.03,VALID,0,VALID,88.7809,VALID,0.0169808,VALID,20.1588,VALID,126,VALID,2.26116,
2004-11-19, 00:57:00,VALID,918.019,VALID,0,VALID,88.8101,VALID,0,VALID,20.1559,VALID,123,VALID,1.72972,
2004-11-19, 00:58:00,VALID,918.024,VALID,0,VALID,88.9653,VALID,0,VALID,20.1457,VALID,116,VALID,1.50266,
2004-11-19, 00:59:00,VALID,918.01,VALID,0,VALID,89.039,VALID,0.0339617,VALID,20.13,VALID,141,VALID,2.21641,
2004-11-19, 01:00:00,VALID,918.004,VALID,0,VALID,89.2247,VALID,0.0169808,VALID,20.1114,VALID,135,VALID,1.66685,
2004-11-19, 01:01:00,VALID,917.975,VALID,0,VALID,89.3773,VALID,0.0339617,VALID,20.0724,VALID,137,VALID,1.5943,
2004-11-19, 01:02:00,VALID,917.968,VALID,0,VALID,89.6201,VALID,0,VALID,20.0336,VALID,122,VALID,1.81064,
2004-11-19, 01:03:00,VALID,917.958,VALID,0,VALID,89.8083,VALID,-0.0169808,VALID,20.0018,VALID,121,VALID,1.64471,
2004-11-19, 01:04:00,VALID,917.937,VALID,0,VALID,89.9253,VALID,-0.0169808,VALID,19.9656,VALID,134,VALID,1.48628,
2004-11-19, 01:05:00,VALID,917.922,VALID,0,VALID,90.0143,VALID,0,VALID,19.9467,VALID,139,VALID,1.76793,
2004-11-19, 01:06:00,VALID,917.919,VALID,0,VALID,90.0538,VALID,0,VALID,19.9305,VALID,136,VALID,1.91637,
2004-11-19, 01:07:00,VALID,917.893,VALID,0,VALID,89.9737,VALID,-0.0169808,VALID,19.9179,VALID,121,VALID,2.22027,
2004-11-19, 01:08:00,VALID,917.882,VALID,0,VALID,89.9304,VALID,-0.0339617,VALID,19.9345,VALID,134,VALID,1.74037,
2004-11-19, 01:09:00,VALID,917.874,VALID,0,VALID,89.952,VALID,-0.0339617,VALID,19.9243,VALID,135,VALID,1.89007,
2004-11-19, 01:10:00,VALID,917.856,VALID,0,VALID,89.9228,VALID,0,VALID,19.9246,VALID,142,VALID,1.87938,
2004-11-19, 01:11:00,VALID,917.842,VALID,0,VALID,89.9279,VALID,0,VALID,19.9243,VALID,130,VALID,2.59542,
2004-11-19, 01:12:00,VALID,917.835,VALID,0,VALID,89.8999,VALID,0,VALID,19.9372,VALID,126,VALID,2.26376,
2004-11-19, 01:13:00,VALID,917.825,VALID,0,VALID,89.8872,VALID,-0.0169808,VALID,19.9243,VALID,124,VALID,1.90774,
2004-11-19, 01:14:00,VALID,917.811,VALID,0,VALID,89.9202,VALID,-0.0169808,VALID,19.9273,VALID,126,VALID,1.93568,
2004-11-19, 01:15:00,VALID,917.792,VALID,0,VALID,89.9546,VALID,0,VALID,19.9079,VALID,105,VALID,2.09766,
2004-11-19, 01:16:00,VALID,917.787,VALID,0,VALID,90.1415,VALID,-0.0169808,VALID,19.8915,VALID,119,VALID,1.60283,
2004-11-19, 01:17:00,VALID,917.761,VALID,0,VALID,90.1733,VALID,0,VALID,19.8699,VALID,138,VALID,2.17188,
2004-11-19, 01:18:00,VALID,917.748,VALID,0,VALID,90.0779,VALID,-0.0169808,VALID,19.8697,VALID,131,VALID,2.19677,
2004-11-19, 01:19:00,VALID,917.75,VALID,0,VALID,90.0156,VALID,0.0169808,VALID,19.8759,VALID,131,VALID,2.50678,
2004-11-19, 01:20:00,VALID,917.733,VALID,0,VALID,90.0182,VALID,0,VALID,19.8692,VALID,126,VALID,1.94087,
2004-11-19, 01:21:00,VALID,917.721,VALID,0,VALID,89.9546,VALID,0,VALID,19.8828,VALID,127,VALID,1.96325,
2004-11-19, 01:22:00,VALID,917.704,VALID,0,VALID,89.7155,VALID,-0.0169808,VALID,19.9054,VALID,132,VALID,1.94115,
2004-11-19, 01:23:00,VALID,917.704,VALID,0,VALID,89.5756,VALID,-0.0339617,VALID,19.9308,VALID,119,VALID,2.40552,
2004-11-19, 01:24:00,VALID,917.687,VALID,0,VALID,89.4459,VALID,0,VALID,19.9762,VALID,124,VALID,2.20145,
2004-11-19, 01:25:00,VALID,917.678,VALID,0,VALID,89.5248,VALID,-0.0169808,VALID,19.9596,VALID,121,VALID,1.64546,
2004-11-19, 01:26:00,VALID,917.659,VALID,0,VALID,89.5909,VALID,0,VALID,19.9603,VALID,129,VALID,1.92318,
2004-11-19, 01:27:00,VALID,917.64,VALID,0,VALID,89.5413,VALID,0,VALID,19.937,VALID,120,VALID,2.13463,
2004-11-19, 01:28:00,VALID,917.633,VALID,0,VALID,89.526,VALID,0,VALID,19.94,VALID,111,VALID,2.29215,
2004-11-19, 01:29:00,VALID,917.596,VALID,0,VALID,89.6672,VALID,0,VALID,19.9507,VALID,103,VALID,1.63411,
2004-11-19, 01:30:00,VALID,917.58,VALID,0,VALID,89.7638,VALID,0,VALID,19.9211,VALID,117,VALID,1.84139,
2004-11-19, 01:31:00,VALID,917.566,VALID,0,VALID,89.6176,VALID,-0.0339617,VALID,19.9119,VALID,129,VALID,1.91921,
2004-11-19, 01:32:00,VALID,917.57,VALID,0,VALID,89.6634,VALID,-0.101885,VALID,19.9223,VALID,121,VALID,1.55705,
2004-11-19, 01:33:00,VALID,917.554,VALID,0,VALID,89.526,VALID,-0.0679233,VALID,19.9258,VALID,117,VALID,2.16897,
2004-11-19, 01:34:00,VALID,917.546,VALID,0,VALID,89.5731,VALID,-0.0849042,VALID,19.9455,VALID,100,VALID,1.49721,
2004-11-19, 01:35:00,VALID,917.538,VALID,0,VALID,89.6367,VALID,-0.118866,VALID,19.9323,VALID,107,VALID,1.50817,
2004-11-19, 01:36:00,VALID,917.528,VALID,0,VALID,89.7816,VALID,-0.101885,VALID,19.9166,VALID,106,VALID,1.13299,
2004-11-19, 01:37:00,VALID,917.509,VALID,0,VALID,89.8516,VALID,-0.118866,VALID,19.8843,VALID,128,VALID,1.91139,
2004-11-19, 01:38:00,VALID,917.501,VALID,0,VALID,89.9558,VALID,-0.101885,VALID,19.858,VALID,120,VALID,1.44568,
2004-11-19, 01:39:00,VALID,917.507,VALID,0,VALID,90.1021,VALID,-0.101885,VALID,19.8456,VALID,115,VALID,1.37333,
2004-11-19, 01:40:00,VALID,917.508,VALID,0,VALID,90.2572,VALID,-0.101885,VALID,19.7999,VALID,120,VALID,1.59115,
2004-11-19, 01:41:00,VALID,917.508,VALID,0,VALID,90.3208,VALID,-0.101885,VALID,19.7872,VALID,117,VALID,1.16566,
2004-11-19, 01:42:00,VALID,917.501,VALID,0,VALID,90.3869,VALID,-0.101885,VALID,19.7738,VALID,105,VALID,1.52246,
2004-11-19, 01:43:00,VALID,917.517,VALID,0,VALID,90.4581,VALID,-0.101885,VALID,19.7512,VALID,110,VALID,1.27493,
2004-11-19, 01:44:00,VALID,917.502,VALID,0,VALID,90.5471,VALID,-0.101885,VALID,19.7387,VALID,112,VALID,1.54745,
2004-11-19, 01:45:00,VALID,917.505,VALID,0,VALID,90.5929,VALID,-0.101885,VALID,19.7258,VALID,118,VALID,1.1593,
2004-11-19, 01:46:00,VALID,917.493,VALID,0,VALID,90.7048,VALID,-0.0509425,VALID,19.7196,VALID,69,VALID,0.837003,
2004-11-19, 01:47:00,VALID,917.486,VALID,0,VALID,90.7938,VALID,0,VALID,19.6821,VALID,117,VALID,1.29451,
2004-11-19, 01:48:00,VALID,917.472,VALID,0,VALID,90.9274,VALID,0.0169808,VALID,19.6828,VALID,102,VALID,1.08921,
2004-11-19, 01:49:00,VALID,917.466,VALID,0,VALID,91.0329,VALID,0,VALID,19.6498,VALID,100,VALID,1.47529,
2004-11-19, 01:50:00,VALID,917.468,VALID,0,VALID,91.1143,VALID,0,VALID,19.6406,VALID,91,VALID,0.853601,
2004-11-19, 01:51:00,VALID,917.479,VALID,0,VALID,91.2936,VALID,0,VALID,19.6113,VALID,97,VALID,1.01563,
2004-11-19, 01:52:00,VALID,917.451,VALID,0,VALID,91.4754,VALID,0,VALID,19.5825,VALID,96,VALID,0.769259,
2004-11-19, 01:53:00,VALID,917.421,VALID,0,VALID,91.5822,VALID,0,VALID,19.5566,VALID,89,VALID,0.776042,
2004-11-19, 01:54:00,VALID,917.4,VALID,0,VALID,91.614,VALID,-0.0339617,VALID,19.541,VALID,91,VALID,1.11589,
2004-11-19, 01:55:00,VALID,917.356,VALID,0,VALID,91.7552,VALID,-0.0169808,VALID,19.5216,VALID,110,VALID,0.85026,
2004-11-19, 01:56:00,VALID,917.343,VALID,0,VALID,91.8251,VALID,0,VALID,19.5017,VALID,109,VALID,0.612614,
2004-11-19, 01:57:00,VALID,917.312,VALID,0,VALID,91.8645,VALID,0.0169808,VALID,19.492,VALID,71,VALID,0.848474,
2004-11-19, 01:58:00,VALID,917.288,VALID,0,VALID,92.0031,VALID,0,VALID,19.4434,VALID,46,VALID,0.721037,
2004-11-19, 01:59:00,VALID,917.276,VALID,0,VALID,92.3706,VALID,-0.0169808,VALID,19.3825,VALID,54,VALID,0.531432,
2004-11-19, 02:00:00,VALID,917.277,VALID,0,VALID,92.5283,VALID,0,VALID,19.3437,VALID,53,VALID,0.194792,
2004-11-19, 02:01:00,VALID,917.264,VALID,0,VALID,92.6377,VALID,-0.0339617,VALID,19.2951,VALID,37,VALID,0.387576,
2004-11-19, 02:02:00,VALID,917.257,VALID,0,VALID,92.8411,VALID,-0.0509425,VALID,19.2734,VALID,26,VALID,0.563802,
2004-11-19, 02:03:00,VALID,917.235,VALID,0,VALID,93.0509,VALID,-0.0679233,VALID,19.2314,VALID,24,VALID,0.627362,
2004-11-19, 02:04:00,VALID,917.228,VALID,0,VALID,93.1895,VALID,0.0509425,VALID,19.188,VALID,38,VALID,0.612043,
2004-11-19, 02:05:00,VALID,917.206,VALID,0,VALID,93.3816,VALID,0.0339617,VALID,19.1234,VALID,40,VALID,0.775799,
2004-11-19, 02:06:00,VALID,917.184,VALID,0,VALID,93.7503,VALID,0.0509425,VALID,19.0517,VALID,41,VALID,1.11955,
2004-11-19, 02:07:00,VALID,917.183,VALID,0,VALID,94.0441,VALID,0.0339617,VALID,19.0203,VALID,50,VALID,1.07641,
2004-11-19, 02:08:00,VALID,917.181,VALID,0,VALID,94.1318,VALID,0.0339617,VALID,18.9841,VALID,49,VALID,1.17094,
2004-11-19, 02:09:00,VALID,917.18,VALID,0,VALID,94.2106,VALID,0.0849042,VALID,18.9719,VALID,56,VALID,1.10956,
2004-11-19, 02:10:00,VALID,917.189,VALID,0,VALID,94.5171,VALID,0.0679233,VALID,18.9297,VALID,64,VALID,1.06993,
2004-11-19, 02:11:00,VALID,917.193,VALID,0,VALID,94.7066,VALID,0.0679233,VALID,18.9138,VALID,78,VALID,0.826349,
2004-11-19, 02:12:00,VALID,917.206,VALID,0,VALID,94.9024,VALID,0.0679233,VALID,18.8813,VALID,91,VALID,1.02118,
2004-11-19, 02:13:00,VALID,917.197,VALID,0,VALID,94.8515,VALID,0.0509425,VALID,18.8815,VALID,79,VALID,0.821221,
2004-11-19, 02:14:00,VALID,917.191,VALID,0,VALID,94.8693,VALID,0.0679233,VALID,18.8721,VALID,78,VALID,0.720203,
2004-11-19, 02:15:00,VALID,917.187,VALID,0,VALID,94.9494,VALID,0.0679233,VALID,18.8552,VALID,79,VALID,0.845958,
2004-11-19, 02:16:00,VALID,917.172,VALID,0,VALID,95.0601,VALID,0.0169808,VALID,18.8532,VALID,81,VALID,0.691236,
2004-11-19, 02:17:00,VALID,917.146,VALID,0,VALID,95.0346,VALID,-0.0679233,VALID,18.8474,VALID,103,VALID,0.776953,
2004-11-19, 02:18:00,VALID,917.124,VALID,0,VALID,94.985,VALID,-0.0679233,VALID,18.8474,VALID,116,VALID,0.883152,
2004-11-19, 02:19:00,VALID,917.107,VALID,0,VALID,95.0359,VALID,-0.0679233,VALID,18.8412,VALID,113,VALID,0.990473,
2004-11-19, 02:20:00,VALID,917.093,VALID,0,VALID,94.8223,VALID,-0.0679233,VALID,18.8606,VALID,124,VALID,0.807165,
2004-11-19, 02:21:00,VALID,917.087,VALID,0,VALID,94.6938,VALID,-0.0509425,VALID,18.8993,VALID,125,VALID,0.708757,
2004-11-19, 02:22:00,VALID,917.07,VALID,0,VALID,94.4586,VALID,0,VALID,18.9281,VALID,111,VALID,0.693132,
2004-11-19, 02:23:00,VALID,917.061,VALID,0,VALID,94.3327,VALID,0,VALID,18.954,VALID,119,VALID,1.04759,
2004-11-19, 02:24:00,VALID,917.045,VALID,0,VALID,94.1763,VALID,-0.0679233,VALID,18.9699,VALID,121,VALID,0.8456,
2004-11-19, 02:25:00,VALID,917.032,VALID,0,VALID,93.9957,VALID,-0.0509425,VALID,19.0128,VALID,111,VALID,1.04371,
2004-11-19, 02:26:00,VALID,917.045,VALID,0,VALID,93.8114,VALID,-0.0339617,VALID,19.0317,VALID,117,VALID,0.935082,
2004-11-19, 02:27:00,VALID,917.042,VALID,0,VALID,93.482,VALID,-0.0849042,VALID,19.0804,VALID,130,VALID,1.52958,
2004-11-19, 02:28:00,VALID,917.047,VALID,0,VALID,93.1171,VALID,-0.0679233,VALID,19.145,VALID,119,VALID,1.24423,
2004-11-19, 02:29:00,VALID,917.035,VALID,0,VALID,92.864,VALID,-0.0849042,VALID,19.2001,VALID,125,VALID,1.4256,
2004-11-19, 02:30:00,VALID,917.035,VALID,0,VALID,92.6237,VALID,-0.0339617,VALID,19.2483,VALID,127,VALID,1.40997,
2004-11-19, 02:31:00,VALID,917.033,VALID,0,VALID,92.5092,VALID,-0.0509425,VALID,19.2806,VALID,134,VALID,1.70729,
2004-11-19, 02:32:00,VALID,917.012,VALID,0,VALID,92.4164,VALID,-0.0849042,VALID,19.2871,VALID,123,VALID,1.67347,
2004-11-19, 02:33:00,VALID,917.002,VALID,0,VALID,92.3579,VALID,-0.0169808,VALID,19.3161,VALID,137,VALID,1.72247,
2004-11-19, 02:34:00,VALID,916.991,VALID,0,VALID,92.2473,VALID,-0.0339617,VALID,19.3291,VALID,135,VALID,1.56978,
2004-11-19, 02:35:00,VALID,916.979,VALID,0,VALID,92.1684,VALID,-0.0339617,VALID,19.3549,VALID,137,VALID,1.9668,
2004-11-19, 02:36:00,VALID,916.956,VALID,0,VALID,92.1481,VALID,-0.0849042,VALID,19.3748,VALID,122,VALID,1.2803,
2004-11-19, 02:37:00,VALID,916.954,VALID,0,VALID,92.2409,VALID,-0.0849042,VALID,19.3581,VALID,115,VALID,1.49379,
2004-11-19, 02:38:00,VALID,916.937,VALID,0,VALID,92.3121,VALID,-0.0849042,VALID,19.3454,VALID,120,VALID,1.4048,
2004-11-19, 02:39:00,VALID,916.917,VALID,0,VALID,92.3159,VALID,-0.0679233,VALID,19.3492,VALID,129,VALID,1.37082,
2004-11-19, 02:40:00,VALID,916.918,VALID,0,VALID,92.3045,VALID,-0.0849042,VALID,19.3328,VALID,126,VALID,1.20294,
2004-11-19, 02:41:00,VALID,916.914,VALID,0,VALID,92.26,VALID,-0.0679233,VALID,19.3226,VALID,114,VALID,1.28997,
2004-11-19, 02:42:00,VALID,916.899,VALID,0,VALID,92.3147,VALID,-0.0849042,VALID,19.3164,VALID,112,VALID,1.20737,
2004-11-19, 02:43:00,VALID,916.897,VALID,0,VALID,92.4355,VALID,-0.0679233,VALID,19.2972,VALID,113,VALID,1.01793,
2004-11-19, 02:44:00,VALID,916.88,VALID,0,VALID,92.5487,VALID,-0.0849042,VALID,19.2612,VALID,127,VALID,1.34432,
2004-11-19, 02:45:00,VALID,916.87,VALID,0,VALID,92.5461,VALID,-0.0679233,VALID,19.2645,VALID,134,VALID,1.07203,
2004-11-19, 02:46:00,VALID,916.858,VALID,0,VALID,92.5397,VALID,-0.0509425,VALID,19.261,VALID,137,VALID,1.58363,
2004-11-19, 02:47:00,VALID,916.858,VALID,0,VALID,92.4584,VALID,-0.0339617,VALID,19.2811,VALID,129,VALID,1.31182,
2004-11-19, 02:48:00,VALID,916.858,VALID,0,VALID,92.4825,VALID,-0.0509425,VALID,19.2746,VALID,130,VALID,1.00363,
2004-11-19, 02:49:00,VALID,916.847,VALID,0,VALID,92.5487,VALID,-0.0849042,VALID,19.2582,VALID,123,VALID,1.38906,
2004-11-19, 02:50:00,VALID,916.854,VALID,0,VALID,92.5219,VALID,-0.101885,VALID,19.2649,VALID,112,VALID,1.43892,
2004-11-19, 02:51:00,VALID,916.842,VALID,0,VALID,92.5232,VALID,-0.101885,VALID,19.2816,VALID,131,VALID,1.26767,
2004-11-19, 02:52:00,VALID,916.844,VALID,0,VALID,92.5995,VALID,-0.0679233,VALID,19.2523,VALID,127,VALID,1.04386,
2004-11-19, 02:53:00,VALID,916.817,VALID,0,VALID,92.7483,VALID,-0.0679233,VALID,19.22,VALID,131,VALID,1.23383,
2004-11-19, 02:54:00,VALID,916.808,VALID,0,VALID,92.8627,VALID,-0.101885,VALID,19.1937,VALID,128,VALID,1.1931,
2004-11-19, 02:55:00,VALID,916.801,VALID,0,VALID,92.995,VALID,-0.101885,VALID,19.181,VALID,128,VALID,1.36551,
2004-11-19, 02:56:00,VALID,916.814,VALID,0,VALID,93.0789,VALID,-0.101885,VALID,19.1484,VALID,131,VALID,1.55729,
2004-11-19, 02:57:00,VALID,916.799,VALID,0,VALID,93.0878,VALID,-0.0849042,VALID,19.145,VALID,133,VALID,1.39602,
2004-11-19, 02:58:00,VALID,916.792,VALID,0,VALID,93.0726,VALID,-0.0849042,VALID,19.1425,VALID,128,VALID,1.48958,
2004-11-19, 02:59:00,VALID,916.786,VALID,0,VALID,93.0827,VALID,-0.101885,VALID,19.1427,VALID,127,VALID,1.58832,
2004-11-19, 03:00:00,VALID,916.795,VALID,0,VALID,93.0726,VALID,-0.101885,VALID,19.139,VALID,137,VALID,1.48895,
2004-11-19, 03:01:00,VALID,916.801,VALID,0,VALID,93.1552,VALID,-0.0679233,VALID,19.1288,VALID,130,VALID,0.946528,
2004-11-19, 03:02:00,VALID,916.805,VALID,0,VALID,93.2188,VALID,-0.0169808,VALID,19.0993,VALID,117,VALID,0.639323,
2004-11-19, 03:03:00,VALID,916.797,VALID,0,VALID,93.5252,VALID,0.0169808,VALID,19.0506,VALID,124,VALID,1.28468,
2004-11-19, 03:04:00,VALID,916.785,VALID,0,VALID,93.6702,VALID,0,VALID,19.0019,VALID,105,VALID,1.0119,
2004-11-19, 03:05:00,VALID,916.751,VALID,0,VALID,93.8864,VALID,0,VALID,18.9659,VALID,86,VALID,0.962612,
2004-11-19, 03:06:00,VALID,916.727,VALID,0,VALID,94.1369,VALID,0,VALID,18.9507,VALID,101,VALID,1.06161,
2004-11-19, 03:07:00,VALID,916.709,VALID,0,VALID,94.1026,VALID,0,VALID,18.9376,VALID,84,VALID,1.15067,
2004-11-19, 03:08:00,VALID,916.695,VALID,0,VALID,94.1394,VALID,0,VALID,18.9014,VALID,84,VALID,1.01358,
2004-11-19, 03:09:00,VALID,916.664,VALID,0,VALID,94.3569,VALID,0,VALID,18.8931,VALID,101,VALID,1.21227,
2004-11-19, 03:10:00,VALID,916.661,VALID,0,VALID,94.4548,VALID,0,VALID,18.8663,VALID,110,VALID,1.45313,
2004-11-19, 03:11:00,VALID,916.647,VALID,0,VALID,94.2857,VALID,0.0509425,VALID,18.8859,VALID,91,VALID,1.28289,
2004-11-19, 03:12:00,VALID,916.652,VALID,0,VALID,94.203,VALID,0.0169808,VALID,18.909,VALID,97,VALID,1.07631,
2004-11-19, 03:13:00,VALID,916.629,VALID,0,VALID,94.2501,VALID,0.0169808,VALID,18.8991,VALID,106,VALID,1.42862,
2004-11-19, 03:14:00,VALID,916.629,VALID,0,VALID,94.0759,VALID,0,VALID,18.9244,VALID,100,VALID,1.63655,
2004-11-19, 03:15:00,VALID,916.61,VALID,0,VALID,93.7541,VALID,0.0169808,VALID,18.9863,VALID,101,VALID,1.1755,
2004-11-19, 03:16:00,VALID,916.601,VALID,0,VALID,93.6448,VALID,0.0169808,VALID,19.0121,VALID,98,VALID,1.23047,
2004-11-19, 03:17:00,VALID,916.593,VALID,0,VALID,93.6588,VALID,0,VALID,19.0183,VALID,108,VALID,1.17205,
2004-11-19, 03:18:00,VALID,916.588,VALID,0,VALID,93.7223,VALID,-0.0169808,VALID,19.0121,VALID,124,VALID,1.08854,
2004-11-19, 03:19:00,VALID,916.583,VALID,0,VALID,93.7605,VALID,0,VALID,19.0252,VALID,120,VALID,1.26254,
2004-11-19, 03:20:00,VALID,916.581,VALID,0,VALID,93.6448,VALID,-0.0169808,VALID,19.0282,VALID,119,VALID,1.05885,
2004-11-19, 03:21:00,VALID,916.575,VALID,0,VALID,93.5965,VALID,0.0169808,VALID,19.0245,VALID,119,VALID,1.05265,
2004-11-19, 03:22:00,VALID,916.589,VALID,0,VALID,93.6893,VALID,0.0339617,VALID,19.0148,VALID,122,VALID,1.41807,
2004-11-19, 03:23:00,VALID,916.588,VALID,0,VALID,93.7567,VALID,0,VALID,18.9952,VALID,123,VALID,1.2662,
2004-11-19, 03:24:00,VALID,916.598,VALID,0,VALID,93.7198,VALID,0,VALID,18.9791,VALID,117,VALID,0.838224,
2004-11-19, 03:25:00,VALID,916.591,VALID,0,VALID,93.8342,VALID,0.0169808,VALID,18.9602,VALID,125,VALID,0.936328,
2004-11-19, 03:26:00,VALID,916.595,VALID,0,VALID,93.9754,VALID,0,VALID,18.9505,VALID,119,VALID,1.2761,
2004-11-19, 03:27:00,VALID,916.588,VALID,0,VALID,93.9334,VALID,0.0169808,VALID,18.9704,VALID,133,VALID,1.241,
2004-11-19, 03:28:00,VALID,916.586,VALID,0,VALID,93.8215,VALID,0,VALID,18.9768,VALID,126,VALID,1.40176,
2004-11-19, 03:29:00,VALID,916.6,VALID,0,VALID,93.6232,VALID,0.0339617,VALID,19.0064,VALID,114,VALID,1.07358,
2004-11-19, 03:30:00,VALID,916.602,VALID,0,VALID,93.538,VALID,0,VALID,18.9992,VALID,107,VALID,1.49833,
2004-11-19, 03:31:00,VALID,916.602,VALID,0,VALID,93.6054,VALID,0.0339617,VALID,19.0123,VALID,123,VALID,1.254,
2004-11-19, 03:32:00,VALID,916.604,VALID,0,VALID,93.4884,VALID,0,VALID,19.0345,VALID,120,VALID,1.52271,
2004-11-19, 03:33:00,VALID,916.597,VALID,0,VALID,93.2073,VALID,0,VALID,19.0668,VALID,103,VALID,1.40298,